This is the latest recevied weather packets stored in our database for station/object AF1E. If no packets are shown the sender has not sent any weather packets the latest 10 day(s).
| Time | Temp. | Humidity | Pressure | Rain* | Wind** | Luminosity | Snow |
|---|---|---|---|---|---|---|---|
| 1777125316 | 20° C | 67% | 1008.7 hPa | 0 mm | - | - | - |
| 1777123516 | 18.33° C | 72% | 1008.7 hPa | 0 mm | - | - | - |
| 1777119916 | 15° C | 82% | 1008.9 hPa | 0 mm | - | - | - |
| 1777118716 | 13.33° C | 87% | 1008.7 hPa | 0 mm | - | - | - |
| 1777118116 | 12.78° C | 89% | 1008.8 hPa | 0 mm | - | - | - |
| 1777115116 | 11.11° C | 90% | 1008.2 hPa | 0 mm | - | - | - |
| 1777114515 | 11.11° C | 90% | 1008 hPa | 0 mm | - | - | - |
| 1777113918 | 11.11° C | 91% | 1008 hPa | 0 mm | - | - | - |
| 1777109717 | 11.67° C | 88% | 1007.7 hPa | 0 mm | - | - | - |
| 1777108518 | 12.22° C | 90% | 1007.6 hPa | 0 mm | - | - | - |
| 1777107917 | 11.67° C | 88% | 1007.8 hPa | 0 mm | - | - | - |
| 1777106717 | 12.22° C | 88% | 1008 hPa | 0 mm | - | - | - |
| 1777104937 | 12.22° C | 87% | 1007.9 hPa | 0 mm | - | - | - |
| 1777102518 | 12.78° C | 85% | 1007.8 hPa | 0 mm | - | - | - |
| 1777093517 | 15.56° C | 75% | 1008.4 hPa | 0 mm | - | - | - |
| 1777089317 | 17.22° C | 65% | 1008.5 hPa | 0 mm | - | - | - |
| 1777086317 | 18.89° C | 56% | 1008.5 hPa | 0 mm | - | - | - |
| 1777085117 | 19.44° C | 55% | 1008.6 hPa | 0 mm | - | - | - |
| 1777083317 | 19.44° C | 54% | 1008.7 hPa | 0 mm | - | - | - |
| 1777081517 | 19.44° C | 52% | 1008.5 hPa | 0 mm | - | - | - |
| 1777079117 | 21.11° C | 48% | 1008 hPa | 0 mm | - | - | - |
| 1777076717 | 21.11° C | 47% | 1007.6 hPa | 0 mm | - | - | - |
* Rain latest hour (hover to see other rain measurements)
** Current wind speed in m/s (hover to see current wind gust speed)